Time,TemperatureF,DewpointF,PressureIn,WindDirection,WindDirectionDegrees,WindSpeedMPH,WindSpeedGustMPH,Humidity,HourlyPrecipIn,Conditions,Clouds,dailyrainin,SoftwareType,DateUTC
2013-01-12 00:00:00,70.4,66.3,30.14,ESE,117,0.0,0.0,87,0.00,,---,0.00,VWS V13.01,2013-01-12 05:00:00,
2013-01-12 00:01:00,70.5,66.4,30.14,ESE,113,0.0,0.0,87,0.00,,---,0.00,VWS V13.01,2013-01-12 05:01:00,
2013-01-12 00:03:00,70.5,66.4,30.14,SE,126,0.0,0.0,87,0.00,,---,0.00,VWS V13.01,2013-01-12 05:03:00,
2013-01-12 00:08:00,70.5,66.4,30.14,SE,126,0.0,0.0,87,0.00,,---,0.00,VWS V13.01,2013-01-12 05:08:00,
2013-01-12 00:13:00,70.4,66.3,30.14,SSE,162,0.0,0.0,87,0.00,,---,0.00,VWS V13.01,2013-01-12 05:13:00,
2013-01-12 00:18:00,70.3,66.2,30.14,SE,135,0.0,0.0,87,0.00,,---,0.00,VWS V13.01,2013-01-12 05:18:00,
2013-01-12 00:23:00,70.2,66.2,30.13,SE,132,0.0,0.0,87,0.00,,---,0.00,VWS V13.01,2013-01-12 05:23:00,
2013-01-12 00:28:00,70.1,66.1,30.13,SSE,163,0.0,0.0,87,0.00,,---,0.00,VWS V13.01,2013-01-12 05:28:00,
2013-01-12 00:33:00,70.1,66.1,30.13,ESE,112,0.0,0.0,87,0.00,,---,0.00,VWS V13.01,2013-01-12 05:33:00,
2013-01-12 00:38:00,69.9,65.9,30.13,ESE,113,0.0,0.0,87,0.00,,---,0.00,VWS V13.01,2013-01-12 05:38:00,
2013-01-12 00:43:00,69.9,65.9,30.13,SSE,153,0.0,0.0,87,0.00,,---,0.00,VWS V13.01,2013-01-12 05:43:00,
2013-01-12 00:49:00,69.8,66.1,30.13,SE,126,0.0,0.0,88,0.00,,---,0.00,VWS V13.01,2013-01-12 05:49:00,
2013-01-12 00:54:00,69.8,66.1,30.12,ESE,116,0.0,0.0,88,0.00,,---,0.00,VWS V13.01,2013-01-12 05:54:00,
2013-01-12 00:59:00,69.7,66.0,30.13,SE,132,0.0,1.0,88,0.00,,---,0.00,VWS V13.01,2013-01-12 05:59:00,
2013-01-12 01:04:00,69.6,65.9,30.13,ESE,122,0.0,0.0,88,0.00,,---,0.00,VWS V13.01,2013-01-12 06:04:00,
2013-01-12 01:09:00,69.5,65.8,30.12,SE,144,0.0,0.0,88,0.00,,---,0.00,VWS V13.01,2013-01-12 06:09:00,
2013-01-12 01:14:00,69.4,65.7,30.12,ESE,108,0.0,0.0,88,0.00,,---,0.00,VWS V13.01,2013-01-12 06:14:00,
2013-01-12 01:19:00,69.3,65.6,30.12,ESE,120,0.0,0.0,88,0.00,,---,0.00,VWS V13.01,2013-01-12 06:19:00,
2013-01-12 01:24:00,69.2,65.5,30.12,SE,134,0.0,0.0,88,0.00,,---,0.00,VWS V13.01,2013-01-12 06:24:00,
2013-01-12 01:29:00,69.2,65.5,30.12,SE,145,0.0,0.0,88,0.00,,---,0.00,VWS V13.01,2013-01-12 06:29:00,
2013-01-12 01:34:00,69.1,65.4,30.12,SE,140,0.0,0.0,88,0.00,,---,0.00,VWS V13.01,2013-01-12 06:34:00,
2013-01-12 01:40:00,69.0,65.6,30.12,ESE,112,0.0,0.0,89,0.00,,---,0.00,VWS V13.01,2013-01-12 06:40:00,
2013-01-12 01:45:00,68.9,65.5,30.12,ESE,122,0.0,0.0,89,0.00,,---,0.00,VWS V13.01,2013-01-12 06:45:00,
2013-01-12 01:50:00,68.8,65.4,30.12,East,100,0.0,0.0,89,0.00,,---,0.00,VWS V13.01,2013-01-12 06:50:00,
2013-01-12 01:55:00,68.8,65.4,30.12,ESE,112,0.0,0.0,89,0.00,,---,0.00,VWS V13.01,2013-01-12 06:55:00,
2013-01-12 02:00:00,68.7,65.3,30.12,SE,132,0.0,0.0,89,0.00,,---,0.00,VWS V13.01,2013-01-12 07:00:00,
2013-01-12 02:05:00,68.6,65.2,30.12,ESE,113,0.0,0.0,89,0.00,,---,0.00,VWS V13.01,2013-01-12 07:05:00,
2013-01-12 02:10:00,68.6,65.2,30.12,ESE,121,0.0,0.0,89,0.00,,---,0.00,VWS V13.01,2013-01-12 07:10:00,
2013-01-12 02:15:00,68.5,65.1,30.12,SE,128,0.0,0.0,89,0.00,,---,0.00,VWS V13.01,2013-01-12 07:15:00,
2013-01-12 02:20:00,68.4,65.0,30.11,ESE,122,0.0,0.0,89,0.00,,---,0.00,VWS V13.01,2013-01-12 07:20:00,
2013-01-12 02:25:00,68.4,65.0,30.11,East,95,0.0,0.0,89,0.00,,---,0.00,VWS V13.01,2013-01-12 07:25:00,
2013-01-12 02:30:00,68.3,64.9,30.11,ESE,117,0.0,0.0,89,0.00,,---,0.00,VWS V13.01,2013-01-12 07:30:00,
2013-01-12 02:35:00,68.3,64.9,30.11,ESE,117,0.0,0.0,89,0.00,,---,0.00,VWS V13.01,2013-01-12 07:35:00,
2013-01-12 02:40:00,68.1,64.7,30.11,ESE,117,0.0,0.0,89,0.00,,---,0.00,VWS V13.01,2013-01-12 07:40:00,
2013-01-12 02:45:00,68.1,64.7,30.11,ESE,111,0.0,0.0,89,0.00,,---,0.00,VWS V13.01,2013-01-12 07:45:00,
2013-01-12 02:50:00,68.0,65.0,30.11,ESE,115,0.0,0.0,90,0.00,,---,0.00,VWS V13.01,2013-01-12 07:50:00,
2013-01-12 02:55:00,67.9,64.9,30.11,ESE,105,0.0,0.0,90,0.00,,---,0.00,VWS V13.01,2013-01-12 07:55:00,
2013-01-12 03:00:00,67.9,64.9,30.11,SE,128,0.0,0.0,90,0.00,,---,0.00,VWS V13.01,2013-01-12 08:00:00,
2013-01-12 03:05:00,67.8,64.8,30.11,ESE,104,0.0,0.0,90,0.00,,---,0.00,VWS V13.01,2013-01-12 08:05:00,
2013-01-12 03:10:00,67.8,64.8,30.11,ESE,118,0.0,0.0,90,0.00,,---,0.00,VWS V13.01,2013-01-12 08:10:00,
2013-01-12 03:16:00,67.7,64.7,30.11,ESE,111,0.0,0.0,90,0.00,,---,0.00,VWS V13.01,2013-01-12 08:16:00,
2013-01-12 03:21:00,67.6,64.6,30.11,ESE,120,0.0,0.0,90,0.00,,---,0.00,VWS V13.01,2013-01-12 08:21:00,
2013-01-12 03:26:00,67.5,64.5,30.11,ESE,119,0.0,0.0,90,0.00,,---,0.00,VWS V13.01,2013-01-12 08:26:00,
2013-01-12 03:31:00,67.4,64.4,30.11,ESE,119,0.0,0.0,90,0.00,,---,0.00,VWS V13.01,2013-01-12 08:31:00,
2013-01-12 03:36:00,67.3,64.3,30.11,ESE,118,0.0,0.0,90,0.00,,---,0.00,VWS V13.01,2013-01-12 08:36:00,
2013-01-12 03:41:00,67.3,64.3,30.11,ESE,117,0.0,0.0,90,0.00,,---,0.00,VWS V13.01,2013-01-12 08:41:00,
2013-01-12 03:46:00,67.2,64.2,30.10,ESE,111,0.0,0.0,90,0.00,,---,0.00,VWS V13.01,2013-01-12 08:46:00,
2013-01-12 03:51:00,67.2,64.2,30.10,ESE,112,0.0,0.0,90,0.00,,---,0.00,VWS V13.01,2013-01-12 08:51:00,
2013-01-12 03:56:00,67.1,64.1,30.10,ESE,112,0.0,0.0,90,0.00,,---,0.00,VWS V13.01,2013-01-12 08:56:00,
2013-01-12 04:01:00,66.9,63.9,30.10,ESE,111,0.0,0.0,90,0.00,,---,0.00,VWS V13.01,2013-01-12 09:01:00,
2013-01-12 04:07:00,66.7,63.7,30.10,ESE,111,0.0,0.0,90,0.00,,---,0.00,VWS V13.01,2013-01-12 09:07:00,
2013-01-12 04:12:00,66.6,63.6,30.10,ESE,111,0.0,0.0,90,0.00,,---,0.00,VWS V13.01,2013-01-12 09:12:00,
2013-01-12 04:17:00,66.4,63.7,30.10,ESE,111,0.0,0.0,91,0.00,,---,0.00,VWS V13.01,2013-01-12 09:17:00,
2013-01-12 04:22:00,66.3,63.6,30.09,ESE,111,0.0,0.0,91,0.00,,---,0.00,VWS V13.01,2013-01-12 09:22:00,
2013-01-12 04:27:00,66.2,63.5,30.09,ESE,111,0.0,0.0,91,0.00,,---,0.00,VWS V13.01,2013-01-12 09:27:00,
2013-01-12 04:32:00,66.2,63.5,30.09,ESE,111,0.0,0.0,91,0.00,,---,0.00,VWS V13.01,2013-01-12 09:32:00,
2013-01-12 04:37:00,66.1,63.4,30.09,ESE,111,0.0,0.0,91,0.00,,---,0.00,VWS V13.01,2013-01-12 09:37:00,
2013-01-12 04:42:00,66.0,63.3,30.09,ESE,111,0.0,0.0,91,0.00,,---,0.00,VWS V13.01,2013-01-12 09:42:00,
2013-01-12 04:47:00,66.0,63.3,30.09,ESE,111,0.0,0.0,91,0.00,,---,0.00,VWS V13.01,2013-01-12 09:47:00,
2013-01-12 04:52:00,65.9,63.2,30.09,ESE,107,0.0,0.0,91,0.00,,---,0.00,VWS V13.01,2013-01-12 09:52:00,
2013-01-12 04:57:00,65.9,63.2,30.09,ESE,107,0.0,0.0,91,0.00,,---,0.00,VWS V13.01,2013-01-12 09:57:00,
2013-01-12 05:02:00,65.9,63.2,30.09,ESE,107,0.0,0.0,91,0.00,,---,0.00,VWS V13.01,2013-01-12 10:02:00,
2013-01-12 05:08:00,65.8,63.1,30.09,ESE,107,0.0,0.0,91,0.00,,---,0.00,VWS V13.01,2013-01-12 10:08:00,
2013-01-12 05:13:00,65.8,63.1,30.09,ESE,107,0.0,0.0,91,0.00,,---,0.00,VWS V13.01,2013-01-12 10:13:00,
2013-01-12 05:18:00,65.8,63.4,30.09,ESE,107,0.0,0.0,92,0.00,,---,0.00,VWS V13.01,2013-01-12 10:18:00,
2013-01-12 05:23:00,65.8,63.4,30.09,ESE,106,0.0,0.0,92,0.00,,---,0.00,VWS V13.01,2013-01-12 10:23:00,
2013-01-12 05:28:00,65.8,63.4,30.09,ESE,107,0.0,0.0,92,0.00,,---,0.00,VWS V13.01,2013-01-12 10:28:00,
2013-01-12 05:33:00,65.8,63.4,30.09,ESE,107,0.0,0.0,92,0.00,,---,0.00,VWS V13.01,2013-01-12 10:33:00,
2013-01-12 05:38:00,65.8,63.4,30.09,ESE,106,0.0,0.0,92,0.00,,---,0.00,VWS V13.01,2013-01-12 10:38:00,
2013-01-12 05:43:00,65.8,63.4,30.09,ESE,106,0.0,0.0,92,0.00,,---,0.00,VWS V13.01,2013-01-12 10:43:00,
2013-01-12 05:48:00,65.8,63.4,30.09,ESE,111,0.0,0.0,92,0.00,,---,0.00,VWS V13.01,2013-01-12 10:48:00,
2013-01-12 05:54:00,65.8,63.4,30.09,ESE,111,0.0,0.0,92,0.00,,---,0.00,VWS V13.01,2013-01-12 10:54:00,
2013-01-12 05:59:00,65.8,63.4,30.09,ESE,111,0.0,0.0,92,0.00,,---,0.00,VWS V13.01,2013-01-12 10:59:00,
2013-01-12 06:04:00,65.8,63.4,30.10,ESE,111,0.0,0.0,92,0.00,,---,0.00,VWS V13.01,2013-01-12 11:04:00,
2013-01-12 06:09:00,65.9,63.5,30.10,East,100,0.0,0.0,92,0.00,,---,0.00,VWS V13.01,2013-01-12 11:09:00,
2013-01-12 06:14:00,65.9,63.5,30.10,ESE,103,0.0,0.0,92,0.00,,---,0.00,VWS V13.01,2013-01-12 11:14:00,
2013-01-12 06:19:00,65.9,63.5,30.10,ESE,103,0.0,0.0,92,0.00,,---,0.00,VWS V13.01,2013-01-12 11:19:00,
2013-01-12 06:24:00,65.9,63.5,30.10,ESE,103,0.0,0.0,92,0.00,,---,0.00,VWS V13.01,2013-01-12 11:24:00,
2013-01-12 06:29:00,65.9,63.5,30.10,ESE,103,0.0,0.0,92,0.00,,---,0.00,VWS V13.01,2013-01-12 11:29:00,
2013-01-12 06:34:00,65.9,63.5,30.10,ESE,103,0.0,0.0,92,0.00,,---,0.00,VWS V13.01,2013-01-12 11:34:00,
2013-01-12 06:39:00,65.9,63.5,30.11,ESE,104,0.0,0.0,92,0.00,,---,0.00,VWS V13.01,2013-01-12 11:39:00,
2013-01-12 06:44:00,65.9,63.5,30.11,ESE,104,0.0,0.0,92,0.00,,---,0.00,VWS V13.01,2013-01-12 11:44:00,
2013-01-12 06:49:00,65.9,63.5,30.11,ESE,104,0.0,0.0,92,0.00,,---,0.00,VWS V13.01,2013-01-12 11:49:00,
2013-01-12 06:54:00,65.8,63.4,30.11,ESE,104,0.0,0.0,92,0.00,,---,0.00,VWS V13.01,2013-01-12 11:54:00,
2013-01-12 06:59:00,65.8,63.4,30.11,ESE,104,0.0,0.0,92,0.00,,---,0.00,VWS V13.01,2013-01-12 11:59:00,
2013-01-12 07:04:00,65.8,63.4,30.11,ESE,103,0.0,0.0,92,0.00,,---,0.00,VWS V13.01,2013-01-12 12:04:00,
2013-01-12 07:09:00,65.9,63.5,30.11,ESE,103,0.0,0.0,92,0.00,,---,0.00,VWS V13.01,2013-01-12 12:09:00,
2013-01-12 07:14:00,65.9,63.5,30.11,ESE,103,0.0,0.0,92,0.00,,---,0.00,VWS V13.01,2013-01-12 12:14:00,
2013-01-12 07:19:00,65.8,63.4,30.12,ESE,103,0.0,0.0,92,0.00,,---,0.01,VWS V13.01,2013-01-12 12:19:00,
2013-01-12 07:24:00,65.7,63.3,30.12,ESE,103,0.0,0.0,92,0.01,,---,0.01,VWS V13.01,2013-01-12 12:24:00,
2013-01-12 07:29:00,65.6,63.2,30.12,ESE,103,0.0,0.0,92,0.01,,---,0.01,VWS V13.01,2013-01-12 12:29:00,
2013-01-12 07:35:00,65.5,62.8,30.12,ESE,103,0.0,0.0,91,0.01,,---,0.01,VWS V13.01,2013-01-12 12:35:00,
2013-01-12 07:40:00,65.5,63.1,30.12,ESE,103,0.0,0.0,92,0.01,,---,0.01,VWS V13.01,2013-01-12 12:40:00,
2013-01-12 07:45:00,65.5,63.1,30.12,ESE,102,0.0,0.0,92,0.01,,---,0.01,VWS V13.01,2013-01-12 12:45:00,
2013-01-12 07:50:00,65.6,63.2,30.12,ESE,102,0.0,0.0,92,0.01,,---,0.01,VWS V13.01,2013-01-12 12:50:00,
2013-01-12 07:55:00,65.7,63.3,30.12,East,101,0.0,0.0,92,0.01,,---,0.01,VWS V13.01,2013-01-12 12:55:00,
2013-01-12 08:00:00,65.8,63.4,30.12,ESE,110,0.0,0.0,92,0.01,,---,0.01,VWS V13.01,2013-01-12 13:00:00,
2013-01-12 08:05:00,65.8,63.4,30.12,ESE,109,0.0,0.0,92,0.01,,---,0.01,VWS V13.01,2013-01-12 13:05:00,
2013-01-12 08:10:00,65.9,63.5,30.12,ESE,109,0.0,0.0,92,0.01,,---,0.01,VWS V13.01,2013-01-12 13:10:00,
2013-01-12 08:15:00,66.1,63.7,30.13,ESE,110,0.0,0.0,92,0.01,,---,0.01,VWS V13.01,2013-01-12 13:15:00,
2013-01-12 08:20:00,66.3,63.9,30.12,ESE,111,0.0,0.0,92,0.01,,---,0.01,VWS V13.01,2013-01-12 13:20:00,
2013-01-12 08:25:00,66.5,64.1,30.12,ESE,111,0.0,0.0,92,0.01,,---,0.01,VWS V13.01,2013-01-12 13:25:00,
2013-01-12 08:30:00,66.8,64.4,30.13,ESE,109,0.0,0.0,92,0.01,,---,0.01,VWS V13.01,2013-01-12 13:30:00,
2013-01-12 08:35:00,67.2,64.8,30.13,ESE,118,0.0,0.0,92,0.00,,---,0.01,VWS V13.01,2013-01-12 13:35:00,
2013-01-12 08:40:00,67.6,64.9,30.13,SE,125,0.0,0.0,91,0.00,,---,0.01,VWS V13.01,2013-01-12 13:40:00,
2013-01-12 08:45:00,68.0,65.3,30.13,SE,124,0.0,0.0,91,0.00,,---,0.01,VWS V13.01,2013-01-12 13:45:00,
2013-01-12 08:50:00,68.5,65.5,30.13,ESE,105,0.0,0.0,90,0.00,,---,0.01,VWS V13.01,2013-01-12 13:50:00,
2013-01-12 08:55:00,69.0,65.9,30.13,ESE,113,0.0,0.0,90,0.00,,---,0.01,VWS V13.01,2013-01-12 13:55:00,
2013-01-12 09:00:00,69.8,66.4,30.13,SE,132,0.0,0.0,89,0.00,,---,0.01,VWS V13.01,2013-01-12 14:00:00,
2013-01-12 09:06:00,70.8,67.1,30.13,SE,145,0.0,0.0,88,0.00,,---,0.01,VWS V13.01,2013-01-12 14:06:00,
2013-01-12 09:11:00,71.5,67.1,30.13,ESE,123,0.0,0.0,86,0.00,,---,0.01,VWS V13.01,2013-01-12 14:11:00,
2013-01-12 09:16:00,72.3,67.5,30.13,ESE,111,0.0,0.0,85,0.00,,---,0.01,VWS V13.01,2013-01-12 14:16:00,
2013-01-12 09:21:00,72.9,67.8,30.13,ESE,119,0.0,0.0,84,0.00,,---,0.01,VWS V13.01,2013-01-12 14:21:00,
2013-01-12 09:26:00,73.5,67.7,30.14,ESE,118,0.0,0.0,82,0.00,,---,0.01,VWS V13.01,2013-01-12 14:26:00,
2013-01-12 09:31:00,74.0,67.8,30.13,SSE,167,4.0,10.0,81,0.00,,---,0.01,VWS V13.01,2013-01-12 14:31:00,
2013-01-12 09:36:00,74.3,67.7,30.13,ESE,123,2.0,10.0,80,0.00,,---,0.01,VWS V13.01,2013-01-12 14:36:00,
2013-01-12 09:41:00,74.6,68.0,30.13,SE,144,0.0,12.0,80,0.00,,---,0.01,VWS V13.01,2013-01-12 14:41:00,
2013-01-12 09:46:00,74.9,67.9,30.13,SE,126,0.0,12.0,79,0.00,,---,0.01,VWS V13.01,2013-01-12 14:46:00,
2013-01-12 09:51:00,75.2,68.2,30.13,SE,141,1.0,12.0,79,0.00,,---,0.01,VWS V13.01,2013-01-12 14:51:00,
2013-01-12 09:56:00,75.5,68.2,30.13,SE,142,0.0,12.0,78,0.00,,---,0.01,VWS V13.01,2013-01-12 14:56:00,
2013-01-12 10:02:00,75.8,68.5,30.13,SSE,161,2.0,6.0,78,0.00,,---,0.01,VWS V13.01,2013-01-12 15:02:00,
2013-01-12 10:07:00,76.1,68.4,30.13,ESE,109,6.0,9.0,77,0.00,,---,0.01,VWS V13.01,2013-01-12 15:07:00,
2013-01-12 10:12:00,76.4,68.7,30.13,South,186,7.0,10.0,77,0.00,,---,0.01,VWS V13.01,2013-01-12 15:12:00,
2013-01-12 10:17:00,76.5,68.8,30.13,SE,139,3.0,10.0,77,0.00,,---,0.01,VWS V13.01,2013-01-12 15:17:00,
2013-01-12 10:22:00,76.5,68.8,30.13,SSE,159,5.0,10.0,77,0.00,,---,0.01,VWS V13.01,2013-01-12 15:22:00,
2013-01-12 10:27:00,76.7,68.9,30.13,SE,129,0.0,10.0,77,0.00,,---,0.01,VWS V13.01,2013-01-12 15:27:00,
2013-01-12 10:32:00,76.5,68.4,30.13,SE,140,3.0,10.0,76,0.00,,---,0.01,VWS V13.01,2013-01-12 15:32:00,
2013-01-12 10:37:00,76.6,68.9,30.13,ESE,103,0.0,11.0,77,0.00,,---,0.01,VWS V13.01,2013-01-12 15:37:00,
2013-01-12 10:42:00,77.2,69.1,30.12,ESE,110,0.0,11.0,76,0.00,,---,0.01,VWS V13.01,2013-01-12 15:42:00,
2013-01-12 10:47:00,77.5,69.0,30.12,East,100,0.0,11.0,75,0.00,,---,0.01,VWS V13.01,2013-01-12 15:47:00,
2013-01-12 10:52:00,77.6,69.1,30.12,SSE,150,0.0,11.0,75,0.00,,---,0.01,VWS V13.01,2013-01-12 15:52:00,
2013-01-12 10:57:00,77.8,68.9,30.11,SSE,164,5.0,11.0,74,0.00,,---,0.01,VWS V13.01,2013-01-12 15:57:00,
2013-01-12 11:02:00,78.0,69.1,30.11,SE,140,2.0,9.0,74,0.00,,---,0.01,VWS V13.01,2013-01-12 16:02:00,
2013-01-12 11:07:00,78.3,68.9,30.11,SE,131,5.0,13.0,73,0.00,,---,0.01,VWS V13.01,2013-01-12 16:07:00,
2013-01-12 11:12:00,78.2,69.2,30.11,SE,138,4.0,13.0,74,0.00,,---,0.01,VWS V13.01,2013-01-12 16:12:00,
2013-01-12 11:17:00,78.3,69.3,30.11,SE,126,1.0,13.0,74,0.00,,---,0.01,VWS V13.01,2013-01-12 16:17:00,
2013-01-12 11:22:00,78.6,69.2,30.10,East,94,4.0,13.0,73,0.00,,---,0.01,VWS V13.01,2013-01-12 16:22:00,
2013-01-12 11:28:00,78.9,69.5,30.10,South,177,11.0,13.0,73,0.00,,---,0.01,VWS V13.01,2013-01-12 16:28:00,
2013-01-12 11:33:00,78.8,69.4,30.10,South,177,4.0,6.0,73,0.00,,---,0.01,VWS V13.01,2013-01-12 16:33:00,
2013-01-12 11:38:00,79.1,69.7,30.09,ESE,123,6.0,9.0,73,0.00,,---,0.01,VWS V13.01,2013-01-12 16:38:00,
2013-01-12 11:43:00,79.4,69.6,30.09,South,175,0.0,12.0,72,0.00,,---,0.01,VWS V13.01,2013-01-12 16:43:00,
2013-01-12 11:48:00,79.6,70.2,30.09,ESE,107,0.0,12.0,73,0.00,,---,0.01,VWS V13.01,2013-01-12 16:48:00,
2013-01-12 11:53:00,79.6,69.4,30.09,SSE,159,0.0,12.0,71,0.00,,---,0.01,VWS V13.01,2013-01-12 16:53:00,
2013-01-12 11:58:00,79.5,69.7,30.09,SSE,148,1.0,12.0,72,0.00,,---,0.01,VWS V13.01,2013-01-12 16:58:00,
2013-01-12 12:03:00,79.6,69.8,30.09,SE,139,0.0,11.0,72,0.00,,---,0.01,VWS V13.01,2013-01-12 17:03:00,
2013-01-12 12:08:00,80.3,70.1,30.08,SE,142,0.0,11.0,71,0.00,,---,0.01,VWS V13.01,2013-01-12 17:08:00,
2013-01-12 12:13:00,80.8,70.1,30.08,SE,126,5.0,11.0,70,0.00,,---,0.01,VWS V13.01,2013-01-12 17:13:00,
2013-01-12 12:19:00,81.0,70.3,30.08,SSE,161,0.0,11.0,70,0.00,,---,0.01,VWS V13.01,2013-01-12 17:19:00,
2013-01-12 12:24:00,80.9,69.8,30.07,SSW,196,0.0,11.0,69,0.00,,---,0.01,VWS V13.01,2013-01-12 17:24:00,
2013-01-12 12:29:00,80.7,70.0,30.07,SSE,152,0.0,11.0,70,0.00,,---,0.01,VWS V13.01,2013-01-12 17:29:00,
2013-01-12 12:34:00,80.7,70.0,30.07,SSE,161,4.0,6.0,70,0.00,,---,0.01,VWS V13.01,2013-01-12 17:34:00,
2013-01-12 12:39:00,81.1,70.0,30.07,SSE,158,1.0,6.0,69,0.00,,---,0.01,VWS V13.01,2013-01-12 17:39:00,
2013-01-12 12:44:00,81.2,70.1,30.07,South,172,0.0,6.0,69,0.00,,---,0.01,VWS V13.01,2013-01-12 17:44:00,
2013-01-12 12:49:00,81.6,70.4,30.07,SSE,165,0.0,6.0,69,0.00,,---,0.01,VWS V13.01,2013-01-12 17:49:00,
2013-01-12 12:54:00,82.0,70.4,30.07,SSE,150,0.0,6.0,68,0.00,,---,0.01,VWS V13.01,2013-01-12 17:54:00,
2013-01-12 12:59:00,82.2,70.2,30.06,SSE,155,4.0,4.0,67,0.00,,---,0.01,VWS V13.01,2013-01-12 17:59:00,
2013-01-12 13:04:00,82.0,70.0,30.06,South,171,0.0,4.0,67,0.00,,---,0.01,VWS V13.01,2013-01-12 18:04:00,
2013-01-12 13:09:00,81.8,70.2,30.06,SSE,159,5.0,11.0,68,0.00,,---,0.01,VWS V13.01,2013-01-12 18:09:00,
2013-01-12 13:14:00,81.6,69.6,30.06,SE,138,0.0,11.0,67,0.00,,---,0.01,VWS V13.01,2013-01-12 18:14:00,
2013-01-12 13:19:00,82.0,70.0,30.06,SSE,163,1.0,11.0,67,0.00,,---,0.01,VWS V13.01,2013-01-12 18:19:00,
2013-01-12 13:25:00,82.3,70.3,30.06,South,184,0.0,11.0,67,0.00,,---,0.01,VWS V13.01,2013-01-12 18:25:00,
2013-01-12 13:30:00,82.3,69.8,30.05,SSW,203,0.0,0.0,66,0.00,,---,0.01,VWS V13.01,2013-01-12 18:30:00,
2013-01-12 13:35:00,82.8,70.7,30.05,SSE,161,0.0,0.0,67,0.00,,---,0.01,VWS V13.01,2013-01-12 18:35:00,
2013-01-12 13:40:00,82.9,70.4,30.05,SE,137,0.0,1.0,66,0.00,,---,0.01,VWS V13.01,2013-01-12 18:40:00,
2013-01-12 13:45:00,83.0,70.5,30.05,SE,127,0.0,1.0,66,0.00,,---,0.01,VWS V13.01,2013-01-12 18:45:00,
2013-01-12 13:50:00,83.1,69.7,30.05,SSW,213,0.0,1.0,64,0.00,,---,0.01,VWS V13.01,2013-01-12 18:50:00,
2013-01-12 13:55:00,82.7,69.8,30.05,SE,136,0.0,1.0,65,0.00,,---,0.01,VWS V13.01,2013-01-12 18:55:00,
2013-01-12 14:00:00,82.7,70.2,30.05,SSW,197,0.0,0.0,66,0.00,,---,0.01,VWS V13.01,2013-01-12 19:00:00,
2013-01-12 14:05:00,82.5,70.0,30.04,SSW,194,0.0,0.0,66,0.00,,---,0.01,VWS V13.01,2013-01-12 19:05:00,
2013-01-12 14:10:00,82.9,70.4,30.04,SSW,193,0.0,0.0,66,0.00,,---,0.01,VWS V13.01,2013-01-12 19:10:00,
2013-01-12 14:16:00,83.3,70.3,30.04,South,169,0.0,0.0,65,0.00,,---,0.01,VWS V13.01,2013-01-12 19:16:00,
2013-01-12 14:21:00,83.0,70.9,30.04,SW,234,0.0,0.0,67,0.00,,---,0.01,VWS V13.01,2013-01-12 19:21:00,
2013-01-12 14:26:00,81.5,70.4,30.05,South,191,0.0,0.0,69,0.00,,---,0.01,VWS V13.01,2013-01-12 19:26:00,
2013-01-12 14:31:00,80.9,70.2,30.04,NW,304,0.0,0.0,70,0.00,,---,0.01,VWS V13.01,2013-01-12 19:31:00,
2013-01-12 14:36:00,80.3,70.1,30.05,SW,218,0.0,0.0,71,0.00,,---,0.01,VWS V13.01,2013-01-12 19:36:00,
2013-01-12 14:41:00,80.0,69.8,30.05,South,174,0.0,0.0,71,0.00,,---,0.01,VWS V13.01,2013-01-12 19:41:00,
2013-01-12 14:46:00,80.0,70.2,30.05,South,186,0.0,0.0,72,0.00,,---,0.01,VWS V13.01,2013-01-12 19:46:00,
2013-01-12 14:51:00,79.7,69.9,30.05,SW,233,0.0,0.0,72,0.00,,---,0.01,VWS V13.01,2013-01-12 19:51:00,
2013-01-12 14:56:00,79.6,70.2,30.05,West,277,0.0,1.0,73,0.00,,---,0.01,VWS V13.01,2013-01-12 19:56:00,
2013-01-12 15:01:00,79.4,70.0,30.05,South,178,0.0,0.0,73,0.00,,---,0.01,VWS V13.01,2013-01-12 20:01:00,
2013-01-12 15:06:00,78.8,69.4,30.05,West,269,0.0,0.0,73,0.00,,---,0.01,VWS V13.01,2013-01-12 20:06:00,
2013-01-12 15:11:00,78.2,69.6,30.05,West,269,0.0,0.0,75,0.00,,---,0.01,VWS V13.01,2013-01-12 20:11:00,
2013-01-12 15:16:00,78.1,69.9,30.05,West,261,0.0,0.0,76,0.00,,---,0.01,VWS V13.01,2013-01-12 20:16:00,
2013-01-12 15:21:00,78.0,69.4,30.05,South,185,0.0,0.0,75,0.00,,---,0.01,VWS V13.01,2013-01-12 20:21:00,
2013-01-12 15:26:00,77.9,69.7,30.05,South,178,0.0,0.0,76,0.00,,---,0.01,VWS V13.01,2013-01-12 20:26:00,
2013-01-12 15:31:00,77.8,69.6,30.05,West,265,0.0,0.0,76,0.00,,---,0.01,VWS V13.01,2013-01-12 20:31:00,
2013-01-12 15:36:00,77.2,69.1,30.05,West,277,0.0,0.0,76,0.00,,---,0.01,VWS V13.01,2013-01-12 20:36:00,
2013-01-12 15:41:00,76.5,68.8,30.06,West,279,0.0,0.0,77,0.00,,---,0.01,VWS V13.01,2013-01-12 20:41:00,
2013-01-12 15:47:00,76.2,68.8,30.06,WNW,299,0.0,1.0,78,0.00,,---,0.01,VWS V13.01,2013-01-12 20:47:00,
2013-01-12 15:52:00,76.3,68.9,30.06,West,260,0.0,1.0,78,0.00,,---,0.01,VWS V13.01,2013-01-12 20:52:00,
2013-01-12 15:57:00,76.3,69.3,30.06,SSW,207,0.0,1.0,79,0.00,,---,0.01,VWS V13.01,2013-01-12 20:57:00,
2013-01-12 16:02:00,76.2,69.2,30.07,WNW,287,0.0,0.0,79,0.00,,---,0.01,VWS V13.01,2013-01-12 21:02:00,
2013-01-12 16:07:00,75.7,69.1,30.06,WNW,287,0.0,0.0,80,0.00,,---,0.01,VWS V13.01,2013-01-12 21:07:00,
2013-01-12 16:12:00,75.6,69.0,30.06,SW,224,0.0,0.0,80,0.00,,---,0.01,VWS V13.01,2013-01-12 21:12:00,
2013-01-12 16:17:00,75.5,69.3,30.07,SW,227,0.0,0.0,81,0.00,,---,0.01,VWS V13.01,2013-01-12 21:17:00,
2013-01-12 16:22:00,75.3,68.7,30.07,SW,225,0.0,0.0,80,0.00,,---,0.01,VWS V13.01,2013-01-12 21:22:00,
2013-01-12 16:27:00,75.1,68.9,30.06,SW,224,0.0,0.0,81,0.00,,---,0.01,VWS V13.01,2013-01-12 21:27:00,
2013-01-12 16:32:00,74.8,68.6,30.06,SW,226,0.0,0.0,81,0.00,,---,0.01,VWS V13.01,2013-01-12 21:32:00,
2013-01-12 16:37:00,74.7,68.8,30.06,SW,230,0.0,0.0,82,0.00,,---,0.01,VWS V13.01,2013-01-12 21:37:00,
2013-01-12 16:42:00,74.5,68.7,30.07,West,265,0.0,0.0,82,0.00,,---,0.01,VWS V13.01,2013-01-12 21:42:00,
2013-01-12 16:47:00,74.4,68.6,30.07,West,265,0.0,0.0,82,0.00,,---,0.01,VWS V13.01,2013-01-12 21:47:00,
2013-01-12 16:52:00,74.4,68.6,30.07,West,265,0.0,0.0,82,0.00,,---,0.01,VWS V13.01,2013-01-12 21:52:00,
2013-01-12 16:57:00,74.4,68.6,30.07,West,264,0.0,0.0,82,0.00,,---,0.01,VWS V13.01,2013-01-12 21:57:00,
2013-01-12 17:02:00,74.4,68.6,30.06,West,265,0.0,0.0,82,0.00,,---,0.01,VWS V13.01,2013-01-12 22:02:00,
2013-01-12 17:07:00,74.3,68.4,30.06,West,265,0.0,0.0,82,0.00,,---,0.01,VWS V13.01,2013-01-12 22:07:00,
2013-01-12 17:12:00,74.3,68.4,30.07,West,265,0.0,0.0,82,0.00,,---,0.01,VWS V13.01,2013-01-12 22:12:00,
2013-01-12 17:17:00,74.3,68.4,30.07,West,265,0.0,0.0,82,0.00,,---,0.01,VWS V13.01,2013-01-12 22:17:00,
2013-01-12 17:22:00,74.2,68.4,30.07,West,265,0.0,0.0,82,0.00,,---,0.01,VWS V13.01,2013-01-12 22:22:00,
2013-01-12 17:27:00,74.1,68.3,30.07,West,265,0.0,0.0,82,0.00,,---,0.01,VWS V13.01,2013-01-12 22:27:00,
2013-01-12 17:32:00,74.0,68.2,30.07,West,265,0.0,0.0,82,0.00,,---,0.01,VWS V13.01,2013-01-12 22:32:00,
2013-01-12 17:37:00,73.9,68.4,30.07,West,265,0.0,0.0,83,0.00,,---,0.01,VWS V13.01,2013-01-12 22:37:00,
2013-01-12 17:43:00,73.7,68.2,30.07,West,265,0.0,0.0,83,0.00,,---,0.01,VWS V13.01,2013-01-12 22:43:00,
2013-01-12 17:48:00,73.5,68.0,30.07,West,265,0.0,0.0,83,0.00,,---,0.01,VWS V13.01,2013-01-12 22:48:00,
2013-01-12 17:53:00,73.4,67.9,30.07,West,265,0.0,0.0,83,0.00,,---,0.01,VWS V13.01,2013-01-12 22:53:00,
2013-01-12 17:58:00,73.4,67.9,30.07,West,265,0.0,0.0,83,0.00,,---,0.01,VWS V13.01,2013-01-12 22:58:00,
2013-01-12 18:03:00,73.3,67.8,30.07,West,265,0.0,0.0,83,0.00,,---,0.01,VWS V13.01,2013-01-12 23:03:00,
2013-01-12 18:08:00,73.1,67.6,30.07,West,265,0.0,0.0,83,0.00,,---,0.01,VWS V13.01,2013-01-12 23:08:00,
2013-01-12 18:13:00,72.7,67.6,30.07,West,265,0.0,0.0,84,0.00,,---,0.01,VWS V13.01,2013-01-12 23:13:00,
2013-01-12 18:18:00,72.5,67.4,30.07,West,265,0.0,0.0,84,0.00,,---,0.01,VWS V13.01,2013-01-12 23:18:00,
2013-01-12 18:23:00,72.3,67.2,30.07,West,265,0.0,0.0,84,0.00,,---,0.01,VWS V13.01,2013-01-12 23:23:00,
2013-01-12 18:28:00,72.2,67.1,30.07,West,265,0.0,0.0,84,0.00,,---,0.01,VWS V13.01,2013-01-12 23:28:00,
2013-01-12 18:33:00,72.1,67.3,30.07,West,265,0.0,0.0,85,0.00,,---,0.01,VWS V13.01,2013-01-12 23:33:00,
2013-01-12 18:38:00,71.9,67.2,30.07,West,265,0.0,0.0,85,0.00,,---,0.01,VWS V13.01,2013-01-12 23:38:00,
2013-01-12 18:43:00,71.7,66.9,30.07,West,265,0.0,0.0,85,0.00,,---,0.01,VWS V13.01,2013-01-12 23:43:00,
2013-01-12 18:48:00,71.5,67.1,30.07,West,265,0.0,0.0,86,0.00,,---,0.01,VWS V13.01,2013-01-12 23:48:00,
2013-01-12 18:53:00,71.4,67.0,30.07,West,265,0.0,0.0,86,0.00,,---,0.01,VWS V13.01,2013-01-12 23:53:00,
2013-01-12 18:58:00,71.2,66.8,30.07,West,265,0.0,0.0,86,0.00,,---,0.01,VWS V13.01,2013-01-12 23:58:00,
2013-01-12 19:03:00,71.1,66.7,30.07,West,265,0.0,0.0,86,0.00,,---,0.01,VWS V13.01,2013-01-13 00:03:00,
2013-01-12 19:08:00,71.1,67.0,30.07,West,265,0.0,0.0,87,0.00,,---,0.01,VWS V13.01,2013-01-13 00:08:00,
2013-01-12 19:13:00,71.0,66.9,30.07,West,265,0.0,0.0,87,0.00,,---,0.01,VWS V13.01,2013-01-13 00:13:00,
2013-01-12 19:18:00,71.0,66.9,30.07,West,265,0.0,0.0,87,0.00,,---,0.01,VWS V13.01,2013-01-13 00:18:00,
2013-01-12 19:23:00,71.0,66.9,30.07,West,265,0.0,0.0,87,0.00,,---,0.01,VWS V13.01,2013-01-13 00:23:00,
2013-01-12 19:28:00,71.0,66.9,30.06,West,265,0.0,0.0,87,0.00,,---,0.01,VWS V13.01,2013-01-13 00:28:00,
2013-01-12 19:33:00,71.0,66.9,30.07,West,265,0.0,0.0,87,0.00,,---,0.01,VWS V13.01,2013-01-13 00:33:00,
2013-01-12 19:38:00,71.0,66.9,30.07,West,265,0.0,0.0,87,0.00,,---,0.01,VWS V13.01,2013-01-13 00:38:00,
2013-01-12 19:44:00,71.1,67.4,30.06,West,265,0.0,0.0,88,0.00,,---,0.01,VWS V13.01,2013-01-13 00:44:00,
2013-01-12 19:49:00,71.0,66.9,30.06,West,265,0.0,0.0,87,0.00,,---,0.01,VWS V13.01,2013-01-13 00:49:00,
2013-01-12 19:54:00,71.0,66.9,30.06,West,265,0.0,0.0,87,0.00,,---,0.01,VWS V13.01,2013-01-13 00:54:00,
2013-01-12 19:59:00,70.9,66.8,30.06,West,265,0.0,0.0,87,0.00,,---,0.01,VWS V13.01,2013-01-13 00:59:00,
2013-01-12 20:04:00,70.9,66.8,30.06,West,265,0.0,0.0,87,0.00,,---,0.01,VWS V13.01,2013-01-13 01:04:00,
2013-01-12 20:09:00,70.8,66.7,30.06,West,265,0.0,0.0,87,0.00,,---,0.01,VWS V13.01,2013-01-13 01:09:00,
2013-01-12 20:14:00,70.7,66.7,30.05,West,265,0.0,0.0,87,0.00,,---,0.01,VWS V13.01,2013-01-13 01:14:00,
2013-01-12 20:19:00,70.7,66.7,30.05,West,265,0.0,0.0,87,0.00,,---,0.01,VWS V13.01,2013-01-13 01:19:00,
2013-01-12 20:24:00,70.6,66.6,30.05,West,265,0.0,0.0,87,0.00,,---,0.01,VWS V13.01,2013-01-13 01:24:00,
2013-01-12 20:29:00,70.5,66.4,30.05,West,265,0.0,0.0,87,0.00,,---,0.01,VWS V13.01,2013-01-13 01:29:00,
2013-01-12 20:34:00,70.5,66.8,30.05,West,265,0.0,0.0,88,0.00,,---,0.01,VWS V13.01,2013-01-13 01:34:00,
2013-01-12 20:39:00,70.4,66.7,30.05,West,265,0.0,0.0,88,0.00,,---,0.01,VWS V13.01,2013-01-13 01:39:00,
2013-01-12 20:44:00,70.3,66.6,30.05,West,265,0.0,0.0,88,0.00,,---,0.01,VWS V13.01,2013-01-13 01:44:00,
2013-01-12 20:49:00,70.1,66.4,30.05,West,265,0.0,0.0,88,0.00,,---,0.01,VWS V13.01,2013-01-13 01:49:00,
2013-01-12 20:54:00,70.0,66.3,30.05,West,265,0.0,0.0,88,0.00,,---,0.01,VWS V13.01,2013-01-13 01:54:00,
2013-01-12 20:59:00,69.9,66.2,30.05,West,265,0.0,0.0,88,0.00,,---,0.01,VWS V13.01,2013-01-13 01:59:00,
2013-01-12 21:04:00,69.8,66.1,30.05,West,265,0.0,0.0,88,0.00,,---,0.01,VWS V13.01,2013-01-13 02:04:00,
2013-01-12 21:09:00,69.6,65.9,30.05,West,265,0.0,0.0,88,0.00,,---,0.01,VWS V13.01,2013-01-13 02:09:00,
2013-01-12 21:14:00,69.5,65.8,30.04,West,265,0.0,0.0,88,0.00,,---,0.01,VWS V13.01,2013-01-13 02:14:00,
2013-01-12 21:19:00,69.4,65.7,30.05,West,265,0.0,0.0,88,0.00,,---,0.01,VWS V13.01,2013-01-13 02:19:00,
2013-01-12 21:25:00,69.3,65.9,30.05,West,265,0.0,0.0,89,0.00,,---,0.01,VWS V13.01,2013-01-13 02:25:00,
2013-01-12 21:30:00,69.2,65.5,30.05,West,265,0.0,0.0,88,0.00,,---,0.01,VWS V13.01,2013-01-13 02:30:00,
2013-01-12 21:35:00,69.2,65.8,30.05,West,265,0.0,0.0,89,0.00,,---,0.01,VWS V13.01,2013-01-13 02:35:00,
2013-01-12 21:40:00,69.1,65.7,30.04,West,265,0.0,0.0,89,0.00,,---,0.01,VWS V13.01,2013-01-13 02:40:00,
2013-01-12 21:45:00,69.1,65.7,30.04,West,265,0.0,0.0,89,0.00,,---,0.01,VWS V13.01,2013-01-13 02:45:00,
2013-01-12 21:50:00,69.0,65.6,30.04,West,265,0.0,0.0,89,0.00,,---,0.01,VWS V13.01,2013-01-13 02:50:00,
2013-01-12 21:55:00,69.0,65.6,30.04,West,265,0.0,0.0,89,0.00,,---,0.01,VWS V13.01,2013-01-13 02:55:00,
2013-01-12 22:00:00,68.9,65.5,30.05,West,265,0.0,0.0,89,0.00,,---,0.01,VWS V13.01,2013-01-13 03:00:00,
2013-01-12 22:05:00,68.8,65.4,30.05,West,265,0.0,0.0,89,0.00,,---,0.01,VWS V13.01,2013-01-13 03:05:00,
2013-01-12 22:10:00,68.6,65.2,30.05,West,265,0.0,0.0,89,0.00,,---,0.01,VWS V13.01,2013-01-13 03:10:00,
2013-01-12 22:15:00,68.4,65.0,30.04,West,265,0.0,0.0,89,0.00,,---,0.01,VWS V13.01,2013-01-13 03:15:00,
2013-01-12 22:20:00,68.3,65.3,30.05,West,265,0.0,0.0,90,0.00,,---,0.01,VWS V13.01,2013-01-13 03:20:00,
2013-01-12 22:25:00,68.1,65.1,30.05,West,265,0.0,0.0,90,0.00,,---,0.01,VWS V13.01,2013-01-13 03:25:00,
2013-01-12 22:30:00,68.0,65.0,30.05,West,265,0.0,0.0,90,0.00,,---,0.01,VWS V13.01,2013-01-13 03:30:00,
2013-01-12 22:36:00,67.9,64.9,30.05,West,265,0.0,0.0,90,0.00,,---,0.01,VWS V13.01,2013-01-13 03:36:00,
2013-01-12 22:41:00,67.9,64.9,30.05,West,265,0.0,0.0,90,0.00,,---,0.01,VWS V13.01,2013-01-13 03:41:00,
2013-01-12 22:46:00,67.9,64.9,30.05,West,265,0.0,0.0,90,0.00,,---,0.01,VWS V13.01,2013-01-13 03:46:00,
2013-01-12 22:51:00,67.8,64.8,30.05,West,265,0.0,0.0,90,0.00,,---,0.01,VWS V13.01,2013-01-13 03:51:00,
2013-01-12 22:56:00,67.8,64.8,30.05,West,265,0.0,0.0,90,0.00,,---,0.01,VWS V13.01,2013-01-13 03:56:00,
2013-01-12 23:01:00,67.9,64.9,30.05,West,264,0.0,0.0,90,0.00,,---,0.01,VWS V13.01,2013-01-13 04:01:00,
2013-01-12 23:06:00,68.1,65.4,30.05,West,264,0.0,0.0,91,0.00,,---,0.01,VWS V13.01,2013-01-13 04:06:00,
2013-01-12 23:11:00,68.3,65.6,30.05,West,264,0.0,0.0,91,0.00,,---,0.01,VWS V13.01,2013-01-13 04:11:00,
2013-01-12 23:16:00,68.4,65.7,30.05,West,263,0.0,0.0,91,0.00,,---,0.01,VWS V13.01,2013-01-13 04:16:00,
2013-01-12 23:21:00,68.5,65.8,30.05,West,263,0.0,0.0,91,0.00,,---,0.01,VWS V13.01,2013-01-13 04:21:00,
2013-01-12 23:26:00,68.5,65.8,30.05,West,263,0.0,0.0,91,0.00,,---,0.01,VWS V13.01,2013-01-13 04:26:00,
2013-01-12 23:31:00,68.6,65.9,30.05,West,263,0.0,0.0,91,0.00,,---,0.01,VWS V13.01,2013-01-13 04:31:00,
2013-01-12 23:36:00,68.6,65.9,30.05,West,263,0.0,0.0,91,0.00,,---,0.01,VWS V13.01,2013-01-13 04:36:00,
2013-01-12 23:41:00,68.6,65.9,30.05,SSE,165,0.0,0.0,91,0.00,,---,0.01,VWS V13.01,2013-01-13 04:41:00,
2013-01-12 23:47:00,68.6,65.9,30.05,SSE,160,0.0,0.0,91,0.00,,---,0.01,VWS V13.01,2013-01-13 04:47:00,
2013-01-12 23:52:00,68.7,65.7,30.05,SSE,157,0.0,0.0,90,0.00,,---,0.01,VWS V13.01,2013-01-13 04:52:00,
2013-01-12 23:57:00,68.7,65.7,30.05,SSE,155,0.0,0.0,90,0.00,,---,0.01,VWS V13.01,2013-01-13 04:57:00,